Starlink 6212

operational
NORAD ID: 57330 Int'l Des: 2023-099 Owner: SPXS Country: US Constellation: starlink
LEOCIRCULAR

Über Starlink 6212

Beschreibung wird geladen...

Live-Position

3D-Globus wird geladen...

Nächste Überflüge

Höhenverlauf

Altitude vs Time

uPlot chart will show altitude changes over time

Zweizeiliger Elementsatz

1 57330U 23099C 26033.52590680 .00001232 00000-0 10624-3 0 9994
2 57330 43.0046 80.3393 0001618 276.3097 83.7561 15.02536928140829
Epoch: 2. Feb. 2026 • Age: 14 hours

Aktueller Status

Höhe 558.5 km
Geschwindigkeit 7.58 km/s
Subsatellitenpunkt 2.11°N, 98.89°W
Startdatum 16. Juli 2023
Alter 2.5 years
Typ internet

Technische Details

Klassifizierung Payload
Masse 305.00 kg
Trockenmasse 290.00 kg
Gesamtmasse 305.00 kg
Länge 0.20 m
Durchmesser 2.80 m
Spannweite 9.00 m
Form Box + pan
Hersteller SPXS
Bus-Typ Starlink
Phasenstatus In Orbit
Besitzer/Staat SPXS/US

Große Konstellationen

Loading constellations...